User: anonymous   Login
Location: Unspecified
(0.0000°N, 0.0000°E)
Time: 19:02:26
(UTC+00:00)
Language:

Amsat-Oscar-6 - Orbit

View from above orbital plane
View from above orbital plane
View from above satellite
View from above satellite

Ground track
Ground track

The orbit data is extracted from the following two-line orbital elements,

1  6236U 72082B   17084.91092038 -.00000048 +00000-0 -18476-4 0  9992
2  6236 101.7009 051.3108 0004413 117.7406 306.1302 12.53135521032797
Epoch (UTC): 25 March 2017 21:51:43
Eccentricity: 0.0004413
inclination: 101.7009°
perigee height: 1448 km
apogee height: 1455 km
right ascension of ascending node: 51.3108°
argument of perigee: 117.7406°
revolutions per day: 12.53135521
mean anomaly at epoch: 306.1302°
orbit number at epoch: 3279

The dashed part of the orbit path shows where the satellite is in the earth's shadow,  

DLR